Regional Weather Roundup
Issued by NWS

Home | Current Version | Previous Version | Text Only | Print | Product List | Glossary On
Versions: 1 2 3 4 5 6 7 8 9 10 11 12 13 14 15 16 17 18 19 20 21 22 23 24 25 26 27 28 29 30 31 32 33 34 35 36 37 38 39 40 41 42 43 44 45 46 47 48 49 50
586
ASPQ40 PGUM 210212
RWRPQ
WEATHER ROUNDUP FOR THE MARIANAS AND MICRONESIA
NATIONAL WEATHER SERVICE TIYAN GU
1200 PM CHST SUN JAN 21 2018

GUZ001>004-210300-
MARIANA ISLANDS-

CITY           SKY/WX    TMP DP  RH WIND       PRES   REMARKS
GUAM AIRPORT   PTSUNNY   88  72  58 NE20      29.85F HX  94
ANDERSEN AFB   MOSUNNY   84  72  65 NE16G22   29.86F
ROTA AIRPORT   PTSUNNY   81  72  74 NE20      29.85F
TINIAN AP      PTSUNNY   82  73  74 NE16      29.84F
SAIPAN AP      MOSUNNY   84  73  70 NE18G25   29.85F HX  91

$$

PMZ161-210300-
REPUBLIC OF PALAU-

CITY           SKY/WX    TMP DP  RH WIND       PRES   REMARKS
KOROR AP       PTSUNNY   82  77  83 NE9       29.75F HX  91
KOROR WSO      CLOUDY    82  77  83 N5        29.76F HX  91

$$

PMZ171>174-210300-
FEDERATED STATES OF MICRONESIA-

CITY           SKY/WX    TMP DP  RH WIND       PRES   REMARKS
YAP AIRPORT    CLOUDY    84  77  79 E12       29.74F HX  94
CHUUK AP       PTSUNNY   88  82  84 VRB6      29.73F HX 108
POHNPEI AP     PTSUNNY   84  81  89 NE9       29.74F HX  98
POHNPEI WSO    CLOUDY    88  77  70 NE8       29.77F HX 100
KOSRAE AP      CLOUDY    88  77  70 E6        29.70F HX 100

$$

PMZ181-210300-
REPUBLIC OF THE MARSHALL ISLANDS-

CITY           SKY/WX    TMP DP  RH WIND       PRES   REMARKS
KWAJALEIN AP   HVY RAIN  79  77  94 SE6       29.77S
MAJURO AP      NOT AVBL
MAJURO WSO     MOSUNNY   86  75  70 SE12      29.70F HX  95

$$





USA.gov is the U.S. government's official web portal to all federal, state and local government web resources and services.